Вернуться в каталог

STARLINK-5173

АктивенСвязьVLEO
NORAD 54059·PAYLOAD·🇺🇸 United States

Запущен Oct 20, 2022 с Cape Canaveral Space Force Station

Loading…

Ближайшие Пролёты (ближайшие 24 часа)

TLE

СвежийSource: CelesTrak SupGP

Эпоха: Sep 14, 2026, 21:33 UTC

1 54059C 22136J   26257.89840278  .00002726  00000+0  80518-4 0  2574
2 54059  53.1573 203.6664 0001475 110.0459   6.3542 15.34396750    17

Отслеживайте STARLINK-5173 в реальном времени с AllMySat

Download on the App Store